Location: Chester
(43.2628°N, 72.5951°W)
Time: 18:01:09
(UTC-05:00)

ISS - Pass Details

Date: 02 February 2021
Orbit: 417 x 422 km, 51.6° (Epoch: 08 March)

Event Time Altitude Azimuth Distance (km) Brightness Sun altitude
Rises 18:19:25 0° 304° (NW) 2,375 0.8 -14.0°
Reaches altitude 10° 18:21:33 10° 309° (NW) 1,509 -0.3 -14.3°
Maximum altitude 18:24:53 55° 28° (NNE) 511 -3.6 -14.9°
Enters shadow 18:26:05 34° 90° (E) 722 -3.1 -15.2°
